Location: Malvern Link
(52.1333°N, 2.3000°W)
Time: 02:32:57
(UTC+00:00)

Cosmos 1634 Rocket - Pass Details

Date: 04 December 2021
Orbit: 959 x 993 km, 82.9° (Epoch: 21 January)

Event Time Altitude Azimuth Distance (km) Brightness Sun altitude
Rises 03:59:27 0° 352° (N) 3,713 7.1 -35.7°
Enters shadow 04:00:44 - 355° (N) 3,255 6.8 -35.5°
Exits shadow 04:01:35 - 357° (N) 2,952 6.6 -35.3°
Reaches altitude 10° 04:02:09 10° 359° (N) 2,756 6.4 -35.2°
Maximum altitude 04:08:09 44° 70° (ENE) 1,333 5.0 -34.3°
Drops below altitude 10° 04:14:05 10° 142° (SE) 2,716 6.6 -33.4°
Sets 04:16:42 0° 149° (SSE) 3,654 7.3 -33.0°
